| time (UTC) | temp F | wind direction | speed MPH | gust MPH | rain 1hr in | rain 24hr in | rain mn in | humidity % | barometer mb |
| 20260502220755 | 49 | 45 | 2.0 | 3.0 | 0.00 | 0.00 | 0.00 | 47 | 1017.1 |
| 20260502220251 | 49 | 302 | 4.0 | 5.0 | 0.00 | 0.00 | 0.00 | 47 | 1017.2 |
| 20260502215748 | 49 | 268 | 2.0 | 3.0 | 0.00 | 0.00 | 0.00 | 47 | 1017.2 |
| 20260502215245 | 50 | 33 | 1.0 | 1.0 | 0.00 | 0.00 | 0.00 | 48 | 1017.0 |
| 20260502214742 | 50 | 13 | 3.0 | 3.0 | 0.00 | 0.00 | 0.00 | 47 | 1017.1 |
| 20260502214239 | 50 | 307 | 2.0 | 5.0 | 0.00 | 0.00 | 0.00 | 49 | 1017.0 |
| 20260502213736 | 50 | 325 | 2.0 | 6.0 | 0.00 | 0.00 | 0.00 | 49 | 1017.0 |
| 20260502213233 | 50 | 24 | 2.0 | 2.0 | 0.00 | 0.00 | 0.00 | 47 | 1016.9 |
| 20260502212732 | 51 | 27 | 3.0 | 3.0 | 0.00 | 0.00 | 0.00 | 49 | 1017.0 |
| 20260502212230 | 50 | 350 | 2.0 | 3.0 | 0.00 | 0.00 | 0.00 | 47 | 1017.0 |
| 20260502211726 | 50 | 20 | 1.0 | 1.0 | 0.00 | 0.00 | 0.00 | 49 | 1016.8 |
| 20260502211223 | 50 | 65 | 1.0 | 1.0 | 0.00 | 0.00 | 0.00 | 49 | 1016.8 |
| 20260502210720 | 49 | 12 | 2.0 | 2.0 | 0.00 | 0.00 | 0.00 | 49 | 1016.9 |
| 20260502210217 | 50 | 336 | 1.0 | 1.0 | 0.00 | 0.00 | 0.00 | 49 | 1016.9 |
| 20260502205715 | 49 | 336 | 1.0 | 1.0 | 0.00 | 0.00 | 0.00 | 46 | 1016.7 |
| 20260502205210 | 49 | 218 | 2.0 | 3.0 | 0.00 | 0.00 | 0.00 | 48 | 1016.8 |
| 20260502204708 | 50 | 26 | 3.0 | 5.0 | 0.00 | 0.00 | 0.00 | 50 | 1016.8 |
| 20260502204205 | 51 | 51 | 7.0 | 10.0 | 0.00 | 0.00 | 0.00 | 50 | 1016.8 |
| 20260502203702 | 52 | 358 | 6.0 | 8.0 | 0.00 | 0.00 | 0.00 | 45 | 1016.7 |
| 20260502203201 | 51 | 32 | 2.0 | 2.0 | 0.00 | 0.00 | 0.00 | 50 | 1016.8 |
| 20260502202654 | 49 | 8 | 0.0 | 1.0 | 0.00 | 0.00 | 0.00 | 48 | 1016.8 |
| 20260502202153 | 50 | 35 | 2.0 | 2.0 | 0.00 | 0.00 | 0.00 | 47 | 1017.0 |
| 20260502201650 | 51 | 353 | 4.0 | 5.0 | 0.00 | 0.00 | 0.00 | 48 | 1016.9 |
| 20260502201146 | 50 | 358 | 2.0 | 2.0 | 0.00 | 0.00 | 0.00 | 49 | 1016.9 |
| 20260502200642 | 50 | 355 | 0.0 | 1.0 | 0.00 | 0.00 | 0.00 | 51 | 1017.0 |
| 20260502200139 | 50 | 307 | 2.0 | 3.0 | 0.00 | 0.00 | 0.00 | 47 | 1017.1 |
| 20260502195637 | 50 | 15 | 2.0 | 2.0 | 0.00 | 0.00 | 0.00 | 45 | 1017.0 |
| 20260502195133 | 52 | 50 | 3.0 | 5.0 | 0.00 | 0.00 | 0.00 | 50 | 1017.1 |
| 20260502194630 | 50 | 0 | 1.0 | 2.0 | 0.00 | 0.00 | 0.00 | 47 | 1017.0 |
| 20260502194127 | 50 | 343 | 1.0 | 1.0 | 0.00 | 0.00 | 0.00 | 47 | 1017.0 |
| 20260502193623 | 50 | 354 | 1.0 | 1.0 | 0.00 | 0.00 | 0.00 | 46 | 1017.2 |
| 20260502193120 | 50 | 4 | 5.0 | 6.0 | 0.00 | 0.00 | 0.00 | 47 | 1017.3 |
| 20260502192616 | 51 | 298 | 1.0 | 2.0 | 0.00 | 0.00 | 0.00 | 47 | 1017.2 |
| 20260502192114 | 51 | 358 | 1.0 | 2.0 | 0.00 | 0.00 | 0.00 | 46 | 1017.1 |
| 20260502191610 | 51 | 2 | 2.0 | 2.0 | 0.00 | 0.00 | 0.00 | 46 | 1017.3 |
| 20260502191108 | 50 | 340 | 3.0 | 5.0 | 0.00 | 0.00 | 0.00 | 48 | 1017.3 |
| 20260502190605 | 49 | 34 | 2.0 | 3.0 | 0.00 | 0.00 | 0.00 | 50 | 1017.4 |
| 20260502185556 | 52 | 19 | 3.0 | 5.0 | 0.00 | 0.00 | 0.00 | 45 | 1017.4 |
| 20260502185054 | 51 | 231 | 2.0 | 3.0 | 0.00 | 0.00 | 0.00 | 49 | 1017.4 |
| 20260502184550 | 51 | 322 | 1.0 | 1.0 | 0.00 | 0.00 | 0.00 | 49 | 1017.3 |
| 20260502184045 | 50 | 31 | 2.0 | 3.0 | 0.00 | 0.00 | 0.00 | 47 | 1017.4 |
| 20260502183542 | 50 | 17 | 3.0 | 5.0 | 0.00 | 0.00 | 0.00 | 49 | 1017.6 |
| 20260502183038 | 50 | 347 | 4.0 | 7.0 | 0.00 | 0.00 | 0.00 | 47 | 1017.4 |
| 20260502182533 | 49 | 21 | 1.0 | 2.0 | 0.00 | 0.00 | 0.00 | 51 | 1017.5 |
| 20260502182030 | 50 | 353 | 2.0 | 2.0 | 0.00 | 0.00 | 0.00 | 49 | 1017.6 |
| 20260502181528 | 50 | 29 | 1.0 | 2.0 | 0.00 | 0.00 | 0.00 | 50 | 1017.5 |
| 20260502181027 | 50 | 8 | 2.0 | 2.0 | 0.00 | 0.00 | 0.00 | 51 | 1017.4 |
| 20260502180523 | 50 | 332 | 2.0 | 2.0 | 0.00 | 0.00 | 0.00 | 50 | 1017.6 |
| 20260502170442 | 50 | 20 | 4.0 | 5.0 | 0.00 | 0.00 | 0.00 | 53 | 1017.7 |
| 20260502163925 | 49 | 20 | 2.0 | 3.0 | 0.00 | 0.00 | 0.00 | 51 | 1017.8 |
| 20260502163421 | 50 | 57 | 2.0 | 2.0 | 0.00 | 0.00 | 0.00 | 53 | 1017.9 |
| 20260502162920 | 48 | 26 | 1.0 | 2.0 | 0.00 | 0.00 | 0.00 | 53 | 1017.9 |
| 20260502162416 | 49 | 316 | 2.0 | 3.0 | 0.00 | 0.00 | 0.00 | 50 | 1017.8 |
| 20260502161913 | 50 | 289 | 1.0 | 1.0 | 0.00 | 0.00 | 0.00 | 50 | 1018.0 |
| 20260502161409 | 48 | 22 | 1.0 | 2.0 | 0.00 | 0.00 | 0.00 | 53 | 1018.1 |
| 20260502160907 | 48 | 357 | 5.0 | 8.0 | 0.00 | 0.00 | 0.00 | 54 | 1018.0 |
| 20260502160405 | 49 | 34 | 1.0 | 1.0 | 0.00 | 0.00 | 0.00 | 51 | 1018.0 |
| 20260502151844 | 49 | 315 | 3.0 | 6.0 | 0.00 | 0.00 | 0.00 | 57 | 1018.0 |
| 20260502151340 | 48 | 319 | 3.0 | 3.0 | 0.00 | 0.00 | 0.00 | 54 | 1017.9 |
| 20260502150838 | 49 | 9 | 5.0 | 7.0 | 0.00 | 0.00 | 0.00 | 54 | 1017.9 |
| 20260502150334 | 48 | 345 | 2.0 | 2.0 | 0.00 | 0.00 | 0.00 | 55 | 1018.0 |
| 20260502130722 | 44 | 35 | 0.0 | 1.0 | 0.00 | 0.00 | 0.00 | 66 | 1017.8 |
| 20260502130220 | 44 | 114 | 1.0 | 2.0 | 0.00 | 0.00 | 0.00 | 67 | 1017.7 |
| 20260502123706 | 42 | 22 | 0.0 | 0.0 | 0.00 | 0.00 | 0.00 | 69 | 1017.6 |
| 20260502123202 | 42 | 286 | 1.0 | 1.0 | 0.00 | 0.00 | 0.00 | 71 | 1017.6 |
| 20260502122659 | 41 | 29 | 1.0 | 1.0 | 0.00 | 0.00 | 0.00 | 72 | 1017.4 |
| 20260502122155 | 41 | 14 | 0.0 | 1.0 | 0.00 | 0.00 | 0.00 | 73 | 1017.5 |
| 20260502121653 | 40 | 350 | 1.0 | 1.0 | 0.00 | 0.00 | 0.00 | 73 | 1017.4 |
| 20260502121151 | 41 | 323 | 3.0 | 5.0 | 0.00 | 0.00 | 0.00 | 75 | 1017.4 |
| 20260502120647 | 40 | 354 | 3.0 | 3.0 | 0.00 | 0.00 | 0.00 | 76 | 1017.5 |
| 20260502120144 | 39 | 44 | 2.0 | 2.0 | 0.00 | 0.00 | 0.00 | 77 | 1017.3 |
| 20260502115642 | 39 | 15 | 1.0 | 2.0 | 0.00 | 0.00 | 0.00 | 77 | 1017.4 |
| 20260502115138 | 39 | 22 | 2.0 | 3.0 | 0.00 | 0.00 | 0.00 | 79 | 1017.3 |
| 20260502114634 | 38 | 40 | 1.0 | 2.0 | 0.00 | 0.00 | 0.00 | 80 | 1017.3 |
| 20260502114132 | 38 | 0 | 1.0 | 1.0 | 0.00 | 0.00 | 0.00 | 82 | 1017.2 |
| 20260502113629 | 37 | 281 | 1.0 | 2.0 | 0.00 | 0.00 | 0.00 | 83 | 1017.2 |
| 20260502113127 | 36 | 19 | 1.0 | 2.0 | 0.00 | 0.00 | 0.00 | 86 | 1017.1 |
| 20260502112624 | 36 | 292 | 0.0 | 1.0 | 0.00 | 0.00 | 0.00 | 87 | 1017.2 |
| 20260502112122 | 35 | 6 | 1.0 | 2.0 | 0.00 | 0.00 | 0.00 | 87 | 1017.1 |
| 20260502111619 | 35 | 5 | 0.0 | 1.0 | 0.00 | 0.00 | 0.00 | 88 | 1017.3 |
| 20260502111116 | 35 | 312 | 0.0 | 1.0 | 0.00 | 0.00 | 0.00 | 88 | 1017.4 |
| 20260502110614 | 35 | 28 | 0.0 | 0.0 | 0.00 | 0.00 | 0.00 | 88 | 1017.1 |
| 20260502110111 | 34 | 22 | 0.0 | 0.0 | 0.00 | 0.00 | 0.00 | 88 | 1017.2 |
| 20260502105609 | 34 | 5 | 0.0 | 1.0 | 0.00 | 0.00 | 0.00 | 88 | 1017.2 |
| 20260502105106 | 34 | 17 | 0.0 | 0.0 | 0.00 | 0.00 | 0.00 | 88 | 1017.3 |
| 20260502104603 | 34 | 329 | 1.0 | 2.0 | 0.00 | 0.00 | 0.00 | 90 | 1017.1 |
| 20260502104100 | 34 | 15 | 1.0 | 1.0 | 0.00 | 0.00 | 0.00 | 90 | 1017.2 |
| 20260502103558 | 34 | 9 | 0.0 | 0.0 | 0.00 | 0.00 | 0.00 | 90 | 1017.2 |
| 20260502103056 | 34 | 1 | 0.0 | 0.0 | 0.00 | 0.00 | 0.00 | 90 | 1017.1 |
| 20260502102551 | 34 | 3 | 0.0 | 0.0 | 0.00 | 0.00 | 0.00 | 90 | 1017.2 |
| 20260502102049 | 34 | 2 | 0.0 | 0.0 | 0.00 | 0.00 | 0.00 | 90 | 1017.2 |
| 20260502101547 | 34 | 351 | 0.0 | 1.0 | 0.00 | 0.00 | 0.00 | 90 | 1017.2 |
| 20260502101045 | 34 | 345 | 0.0 | 0.0 | 0.00 | 0.00 | 0.00 | 91 | 1017.3 |
| 20260502100543 | 34 | 0 | 0.0 | 0.0 | 0.00 | 0.00 | 0.00 | 91 | 1017.1 |
| 20260502091518 | 34 | 19 | 0.0 | 0.0 | 0.00 | 0.00 | 0.00 | 91 | 1017.0 |
| 20260502091015 | 35 | 19 | 0.0 | 0.0 | 0.00 | 0.00 | 0.00 | 91 | 1017.4 |
| 20260502090512 | 35 | 20 | 0.0 | 0.0 | 0.00 | 0.00 | 0.00 | 91 | 1017.3 |
| 20260502071406 | 35 | 17 | 0.0 | 0.0 | 0.00 | 0.00 | 0.00 | 99 | 1016.8 |
| 20260502070905 | 35 | 19 | 0.0 | 0.0 | 0.00 | 0.00 | 0.00 | 99 | 1016.9 |
| 20260502070402 | 35 | 8 | 0.0 | 0.0 | 0.00 | 0.00 | 0.00 | 99 | 1016.8 |
| 20260502065901 | 35 | 4 | 0.0 | 0.0 | 0.00 | 0.00 | 0.00 | 99 | 1017.2 |
| 20260502065359 | 35 | 1 | 0.0 | 0.0 | 0.00 | 0.00 | 0.00 | 99 | 1017.0 |
| 20260502064856 | 35 | 358 | 0.0 | 0.0 | 0.00 | 0.00 | 0.00 | 99 | 1017.1 |
| 20260502064354 | 35 | 23 | 0.0 | 0.0 | 0.00 | 0.00 | 0.00 | 99 | 1017.2 |
| 20260502063851 | 35 | 13 | 0.0 | 0.0 | 0.00 | 0.00 | 0.00 | 99 | 1017.1 |
| 20260502063349 | 36 | 13 | 0.0 | 0.0 | 0.00 | 0.00 | 0.00 | 99 | 1017.2 |
| 20260502062846 | 36 | 24 | 0.0 | 0.0 | 0.00 | 0.00 | 0.00 | 99 | 1017.1 |
| 20260502062343 | 36 | 35 | 0.0 | 0.0 | 0.00 | 0.00 | 0.00 | 99 | 1017.3 |
| 20260502061842 | 36 | 33 | 0.0 | 0.0 | 0.00 | 0.00 | 0.00 | 99 | 1017.3 |
| 20260502061339 | 36 | 10 | 0.0 | 0.0 | 0.00 | 0.00 | 0.00 | 99 | 1017.2 |
| 20260502060835 | 36 | 13 | 0.0 | 0.0 | 0.00 | 0.00 | 0.00 | 99 | 1017.4 |
| 20260502060330 | 36 | 15 | 0.0 | 0.0 | 0.00 | 0.00 | 0.00 | 99 | 1017.3 |
| 20260502055828 | 36 | 15 | 0.0 | 0.0 | 0.00 | 0.00 | 0.00 | 99 | 1017.2 |
| 20260502055326 | 35 | 17 | 0.0 | 0.0 | 0.00 | 0.00 | 0.00 | 99 | 1017.3 |
| 20260502054825 | 35 | 12 | 0.0 | 0.0 | 0.00 | 0.00 | 0.00 | 99 | 1017.3 |
| 20260502054322 | 35 | 15 | 0.0 | 0.0 | 0.00 | 0.00 | 0.00 | 99 | 1017.3 |
| 20260502053820 | 35 | 15 | 0.0 | 0.0 | 0.00 | 0.00 | 0.00 | 99 | 1017.3 |
| 20260502053317 | 35 | 15 | 0.0 | 0.0 | 0.00 | 0.00 | 0.00 | 99 | 1017.5 |
| 20260502052814 | 35 | 15 | 0.0 | 0.0 | 0.00 | 0.00 | 0.00 | 99 | 1017.5 |
| 20260502052312 | 35 | 15 | 0.0 | 0.0 | 0.00 | 0.00 | 0.00 | 99 | 1017.3 |
| 20260502051810 | 35 | 15 | 0.0 | 0.0 | 0.00 | 0.00 | 0.00 | 99 | 1017.4 |
| 20260502051309 | 35 | 15 | 0.0 | 0.0 | 0.00 | 0.00 | 0.00 | 99 | 1017.2 |
| 20260502050804 | 36 | 15 | 0.0 | 0.0 | 0.00 | 0.00 | 0.00 | 99 | 1017.5 |
| 20260502050300 | 36 | 15 | 0.0 | 0.0 | 0.00 | 0.00 | 0.00 | 99 | 1017.4 |
| 20260502045758 | 36 | 26 | 0.0 | 0.0 | 0.00 | 0.00 | 0.00 | 99 | 1017.4 |
| 20260502045254 | 35 | 22 | 0.0 | 0.0 | 0.00 | 0.00 | 0.00 | 99 | 1017.5 |
| 20260502044752 | 36 | 17 | 0.0 | 0.0 | 0.00 | 0.00 | 0.00 | 99 | 1017.6 |
| 20260502044247 | 36 | 15 | 0.0 | 0.0 | 0.00 | 0.00 | 0.00 | 99 | 1017.4 |
| 20260502043745 | 35 | 20 | 0.0 | 0.0 | 0.00 | 0.00 | 0.00 | 99 | 1017.6 |
| 20260502043242 | 35 | 20 | 0.0 | 0.0 | 0.00 | 0.00 | 0.00 | 99 | 1017.4 |
| 20260502042742 | 35 | 20 | 0.0 | 0.0 | 0.00 | 0.00 | 0.00 | 99 | 1017.4 |
| 20260502042239 | 35 | 20 | 0.0 | 0.0 | 0.00 | 0.00 | 0.00 | 99 | 1017.4 |
| 20260502041737 | 36 | 20 | 0.0 | 0.0 | 0.00 | 0.00 | 0.00 | 99 | 1017.6 |
| 20260502041234 | 36 | 20 | 0.0 | 0.0 | 0.00 | 0.00 | 0.00 | 99 | 1017.5 |
| 20260502040731 | 36 | 20 | 0.0 | 0.0 | 0.00 | 0.00 | 0.00 | 99 | 1017.6 |
| 20260502040228 | 36 | 20 | 0.0 | 0.0 | 0.00 | 0.00 | 0.00 | 99 | 1017.5 |
| 20260502035724 | 36 | 20 | 0.0 | 0.0 | 0.00 | 0.12 | 0.12 | 98 | 1017.5 |
| 20260502035221 | 36 | 20 | 0.0 | 0.0 | 0.00 | 0.12 | 0.12 | 98 | 1017.5 |
| 20260502034718 | 36 | 20 | 0.0 | 0.0 | 0.00 | 0.12 | 0.12 | 98 | 1017.5 |
| 20260502034216 | 37 | 20 | 0.0 | 0.0 | 0.00 | 0.12 | 0.12 | 97 | 1017.4 |
| 20260502033714 | 37 | 20 | 0.0 | 0.0 | 0.00 | 0.12 | 0.12 | 97 | 1017.5 |
| 20260502033212 | 37 | 20 | 0.0 | 0.0 | 0.00 | 0.12 | 0.12 | 97 | 1017.4 |
| 20260502032708 | 37 | 20 | 0.0 | 0.0 | 0.00 | 0.12 | 0.12 | 96 | 1017.3 |
| 20260502032204 | 38 | 20 | 0.0 | 0.0 | 0.00 | 0.12 | 0.12 | 96 | 1017.3 |
| 20260502031702 | 38 | 23 | 0.0 | 0.0 | 0.00 | 0.12 | 0.12 | 96 | 1017.4 |
| 20260502031200 | 38 | 23 | 0.0 | 0.0 | 0.00 | 0.12 | 0.12 | 95 | 1017.3 |
| 20260502030658 | 39 | 23 | 0.0 | 0.0 | 0.00 | 0.12 | 0.12 | 95 | 1017.5 |
| 20260502030156 | 39 | 15 | 0.0 | 0.0 | 0.00 | 0.12 | 0.12 | 94 | 1017.4 |
| 20260502025653 | 39 | 15 | 0.0 | 0.0 | 0.00 | 0.12 | 0.12 | 93 | 1017.4 |
| 20260502025151 | 39 | 14 | 0.0 | 0.0 | 0.00 | 0.12 | 0.12 | 92 | 1017.5 |
| 20260502024648 | 39 | 14 | 0.0 | 0.0 | 0.00 | 0.12 | 0.12 | 92 | 1017.3 |
| 20260502024146 | 40 | 14 | 0.0 | 0.0 | 0.00 | 0.12 | 0.12 | 91 | 1017.4 |
| 20260502023644 | 41 | 14 | 0.0 | 0.0 | 0.00 | 0.12 | 0.12 | 90 | 1017.4 |
| 20260502023141 | 41 | 14 | 0.0 | 0.0 | 0.00 | 0.12 | 0.12 | 90 | 1017.4 |
| 20260502022638 | 41 | 14 | 0.0 | 0.0 | 0.00 | 0.12 | 0.12 | 89 | 1017.3 |
| 20260502022135 | 42 | 14 | 0.0 | 0.0 | 0.00 | 0.12 | 0.12 | 88 | 1017.1 |
| 20260502021632 | 42 | 14 | 0.0 | 0.0 | 0.00 | 0.12 | 0.12 | 87 | 1016.9 |
| 20260502021129 | 42 | 20 | 0.0 | 0.0 | 0.00 | 0.12 | 0.12 | 86 | 1017.0 |
| 20260502020627 | 43 | 21 | 0.0 | 0.0 | 0.00 | 0.12 | 0.12 | 84 | 1017.0 |
| 20260502020123 | 44 | 21 | 0.0 | 1.0 | 0.00 | 0.12 | 0.12 | 83 | 1016.9 |
| 20260502015621 | 44 | 28 | 0.0 | 1.0 | 0.00 | 0.12 | 0.12 | 82 | 1016.7 |
| 20260502015117 | 44 | 23 | 1.0 | 1.0 | 0.00 | 0.12 | 0.12 | 81 | 1016.7 |
| 20260502014615 | 44 | 356 | 1.0 | 2.0 | 0.00 | 0.12 | 0.12 | 80 | 1016.8 |
| 20260502014112 | 45 | 3 | 1.0 | 1.0 | 0.00 | 0.12 | 0.12 | 79 | 1016.4 |
| 20260502013608 | 45 | 20 | 0.0 | 0.0 | 0.00 | 0.12 | 0.12 | 78 | 1016.6 |
| 20260502013103 | 46 | 26 | 0.0 | 1.0 | 0.00 | 0.12 | 0.12 | 76 | 1016.3 |
| 20260502012602 | 46 | 6 | 0.0 | 1.0 | 0.00 | 0.12 | 0.12 | 75 | 1016.4 |
| 20260502012059 | 46 | 19 | 0.0 | 0.0 | 0.00 | 0.12 | 0.12 | 79 | 1016.4 |
| 20260502011555 | 45 | 8 | 1.0 | 1.0 | 0.00 | 0.12 | 0.12 | 85 | 1016.2 |
| 20260502011051 | 45 | 13 | 0.0 | 1.0 | 0.00 | 0.12 | 0.12 | 88 | 1015.9 |
| 20260502010549 | 44 | 8 | 0.0 | 0.0 | 0.00 | 0.12 | 0.12 | 87 | 1015.8 |
| 20260502010045 | 44 | 9 | 0.0 | 0.0 | 0.00 | 0.12 | 0.12 | 86 | 1015.6 |
| 20260502005543 | 45 | 8 | 0.0 | 0.0 | 0.00 | 0.12 | 0.12 | 86 | 1015.5 |
| 20260502005041 | 45 | 14 | 0.0 | 0.0 | 0.00 | 0.12 | 0.12 | 84 | 1015.4 |
| 20260502004536 | 46 | 14 | 0.0 | 0.0 | 0.00 | 0.12 | 0.12 | 83 | 1015.4 |
| 20260502004033 | 46 | 12 | 0.0 | 0.0 | 0.00 | 0.12 | 0.12 | 81 | 1015.5 |
| 20260502003531 | 47 | 11 | 0.0 | 0.0 | 0.00 | 0.12 | 0.12 | 79 | 1015.6 |
| 20260502003028 | 47 | 14 | 0.0 | 0.0 | 0.00 | 0.12 | 0.12 | 77 | 1015.5 |
| 20260502002524 | 48 | 2 | 1.0 | 1.0 | 0.00 | 0.12 | 0.12 | 76 | 1015.4 |
| 20260502002021 | 48 | 331 | 0.0 | 1.0 | 0.00 | 0.12 | 0.12 | 75 | 1015.6 |
| 20260502001519 | 48 | 11 | 0.0 | 0.0 | 0.00 | 0.12 | 0.12 | 74 | 1015.7 |
| 20260502001016 | 48 | 9 | 0.0 | 0.0 | 0.00 | 0.12 | 0.12 | 73 | 1015.6 |
| 20260502000515 | 48 | 24 | 1.0 | 1.0 | 0.00 | 0.12 | 0.12 | 73 | 1015.7 |
| 20260502000011 | 48 | 7 | 0.0 | 0.0 | 0.00 | 0.12 | 0.12 | 72 | 1015.4 |
| 20260501235507 | 48 | 345 | 1.0 | 2.0 | 0.00 | 0.12 | 0.12 | 73 | 1015.4 |
| 20260501235003 | 48 | 344 | 0.0 | 1.0 | 0.00 | 0.12 | 0.12 | 73 | 1015.2 |
| 20260501234458 | 49 | 5 | 0.0 | 0.0 | 0.00 | 0.12 | 0.12 | 73 | 1015.1 |
| 20260501233957 | 49 | 17 | 0.0 | 0.0 | 0.00 | 0.12 | 0.12 | 73 | 1015.1 |
| 20260501233455 | 49 | 331 | 0.0 | 1.0 | 0.00 | 0.12 | 0.12 | 72 | 1015.0 |
| 20260501232950 | 49 | 12 | 2.0 | 3.0 | 0.00 | 0.12 | 0.12 | 72 | 1014.9 |
| 20260501232448 | 49 | 26 | 0.0 | 0.0 | 0.00 | 0.12 | 0.12 | 73 | 1014.9 |
| 20260501231944 | 49 | 4 | 0.0 | 0.0 | 0.00 | 0.12 | 0.12 | 72 | 1014.9 |
| 20260501231443 | 49 | 328 | 1.0 | 1.0 | 0.00 | 0.12 | 0.12 | 71 | 1014.9 |
| 20260501230941 | 49 | 348 | 1.0 | 2.0 | 0.00 | 0.12 | 0.12 | 70 | 1014.7 |
| 20260501230440 | 49 | 353 | 3.0 | 5.0 | 0.00 | 0.12 | 0.12 | 71 | 1015.0 |
| 20260501225937 | 49 | 351 | 3.0 | 6.0 | 0.00 | 0.12 | 0.12 | 71 | 1014.8 |
| 20260501225434 | 49 | 21 | 1.0 | 1.0 | 0.00 | 0.12 | 0.12 | 71 | 1014.8 |
| 20260501224930 | 50 | 12 | 2.0 | 2.0 | 0.00 | 0.12 | 0.12 | 71 | 1014.9 |
| 20260501224427 | 50 | 12 | 1.0 | 1.0 | 0.00 | 0.12 | 0.12 | 70 | 1014.9 |
| 20260501223924 | 50 | 349 | 1.0 | 1.0 | 0.00 | 0.12 | 0.12 | 71 | 1014.8 |
| 20260501223420 | 49 | 357 | 2.0 | 2.0 | 0.00 | 0.12 | 0.12 | 72 | 1014.7 |
| 20260501222916 | 49 | 350 | 0.0 | 1.0 | 0.00 | 0.12 | 0.12 | 74 | 1014.9 |
| 20260501222414 | 49 | 348 | 3.0 | 5.0 | 0.00 | 0.12 | 0.12 | 73 | 1014.9 |
| 20260501221910 | 50 | 17 | 1.0 | 1.0 | 0.00 | 0.12 | 0.12 | 74 | 1015.0 |
| 20260501221407 | 50 | 5 | 2.0 | 3.0 | 0.00 | 0.12 | 0.12 | 74 | 1015.0 |